| time (UTC) | temp F | wind direction | speed MPH | gust MPH | rain 1hr in | rain 24hr in | rain mn in | humidity % | barometer mb |
| 20260507034031 | 39 | 0 | 0.0 | 0.0 | 0.00 | 0.00 | 0.00 | 71 | 1015.7 |
| 20260507033531 | 39 | 0 | 0.0 | 0.0 | 0.00 | 0.00 | 0.00 | 71 | 1015.8 |
| 20260507033049 | 39 | 0 | 0.0 | 0.0 | 0.00 | 0.00 | 0.00 | 70 | 1015.8 |
| 20260507032531 | 40 | 0 | 0.0 | 0.0 | 0.00 | 0.00 | 0.00 | 69 | 1015.8 |
| 20260507032030 | 40 | 0 | 0.0 | 0.0 | 0.00 | 0.00 | 0.00 | 69 | 1015.8 |
| 20260507031540 | 41 | 0 | 0.0 | 0.0 | 0.00 | 0.00 | 0.00 | 68 | 1015.8 |
| 20260507031031 | 41 | 0 | 0.0 | 0.0 | 0.00 | 0.00 | 0.00 | 67 | 1015.8 |
| 20260507030531 | 41 | 0 | 0.0 | 0.0 | 0.00 | 0.00 | 0.00 | 67 | 1015.8 |
| 20260507030040 | 42 | 0 | 0.0 | 0.0 | 0.00 | 0.00 | 0.00 | 66 | 1015.7 |
| 20260507025530 | 42 | 0 | 0.0 | 0.0 | 0.00 | 0.00 | 0.00 | 66 | 1015.7 |
| 20260507025030 | 42 | 0 | 0.0 | 0.0 | 0.00 | 0.00 | 0.00 | 66 | 1015.6 |
| 20260507024541 | 42 | 0 | 0.0 | 1.0 | 0.00 | 0.00 | 0.00 | 65 | 1015.7 |
| 20260507024032 | 43 | 0 | 0.0 | 1.0 | 0.00 | 0.00 | 0.00 | 64 | 1015.6 |
| 20260507023531 | 43 | 0 | 0.0 | 1.0 | 0.00 | 0.00 | 0.00 | 63 | 1015.6 |
| 20260507023042 | 43 | 0 | 0.0 | 1.0 | 0.00 | 0.00 | 0.00 | 62 | 1015.5 |
| 20260507022531 | 44 | 0 | 0.0 | 1.0 | 0.00 | 0.00 | 0.00 | 61 | 1015.5 |
| 20260507022031 | 44 | 0 | 0.0 | 1.0 | 0.00 | 0.00 | 0.00 | 60 | 1015.4 |
| 20260507021543 | 45 | 0 | 0.0 | 1.0 | 0.00 | 0.00 | 0.00 | 59 | 1015.3 |
| 20260507021031 | 45 | 334 | 0.0 | 0.0 | 0.00 | 0.00 | 0.00 | 59 | 1015.4 |
| 20260507020532 | 45 | 0 | 0.0 | 1.0 | 0.00 | 0.00 | 0.00 | 58 | 1015.2 |
| 20260507020044 | 46 | 0 | 0.0 | 3.0 | 0.00 | 0.00 | 0.00 | 57 | 1015.1 |
| 20260507015530 | 46 | 0 | 0.0 | 3.0 | 0.00 | 0.00 | 0.00 | 56 | 1015.1 |
| 20260507015032 | 46 | 343 | 0.0 | 3.0 | 0.00 | 0.00 | 0.00 | 56 | 1015.1 |
| 20260507014548 | 47 | 37 | 1.0 | 3.0 | 0.00 | 0.00 | 0.00 | 55 | 1015.0 |
| 20260507014030 | 47 | 1 | 0.0 | 2.0 | 0.00 | 0.00 | 0.00 | 54 | 1015.0 |
| 20260507013531 | 47 | 0 | 0.0 | 4.0 | 0.00 | 0.00 | 0.00 | 54 | 1014.9 |
| 20260507013039 | 47 | 317 | 1.0 | 5.0 | 0.00 | 0.00 | 0.00 | 53 | 1014.8 |
| 20260507012530 | 48 | 360 | 1.0 | 9.0 | 0.00 | 0.00 | 0.00 | 52 | 1014.9 |
| 20260507012030 | 48 | 320 | 2.0 | 9.0 | 0.00 | 0.00 | 0.00 | 52 | 1014.7 |
| 20260507011542 | 48 | 356 | 4.0 | 8.0 | 0.00 | 0.00 | 0.00 | 51 | 1014.8 |
| 20260507011031 | 48 | 317 | 1.0 | 5.0 | 0.00 | 0.00 | 0.00 | 52 | 1014.7 |
| 20260507010530 | 49 | 38 | 1.0 | 7.0 | 0.00 | 0.00 | 0.00 | 51 | 1014.7 |
| 20260507010043 | 49 | 328 | 2.0 | 7.0 | 0.00 | 0.00 | 0.00 | 51 | 1014.8 |
| 20260507005531 | 49 | 311 | 2.0 | 6.0 | 0.00 | 0.00 | 0.00 | 50 | 1014.7 |
| 20260507005032 | 50 | 359 | 2.0 | 8.0 | 0.00 | 0.00 | 0.00 | 50 | 1014.7 |
| 20260507004544 | 50 | 341 | 2.0 | 8.0 | 0.00 | 0.00 | 0.00 | 49 | 1014.6 |
| 20260507004030 | 50 | 301 | 3.0 | 9.0 | 0.00 | 0.00 | 0.00 | 50 | 1014.7 |
| 20260507003530 | 50 | 313 | 1.0 | 9.0 | 0.00 | 0.00 | 0.00 | 50 | 1014.7 |
| 20260507003042 | 51 | 341 | 3.0 | 9.0 | 0.00 | 0.00 | 0.00 | 49 | 1014.8 |
| 20260507002530 | 51 | 345 | 2.0 | 9.0 | 0.00 | 0.00 | 0.00 | 49 | 1014.6 |
| 20260507002031 | 51 | 270 | 4.0 | 9.0 | 0.00 | 0.00 | 0.00 | 49 | 1014.6 |
| 20260507001546 | 51 | 323 | 2.0 | 15.0 | 0.00 | 0.00 | 0.00 | 48 | 1014.5 |
| 20260507001029 | 52 | 356 | 4.0 | 15.0 | 0.00 | 0.00 | 0.00 | 47 | 1014.3 |
| 20260507000530 | 52 | 323 | 3.0 | 9.0 | 0.00 | 0.00 | 0.00 | 47 | 1014.4 |
| 20260507000047 | 52 | 323 | 2.0 | 12.0 | 0.00 | 0.00 | 0.00 | 47 | 1014.2 |
| 20260506235529 | 52 | 28 | 4.0 | 12.0 | 0.00 | 0.00 | 0.00 | 47 | 1014.1 |
| 20260506235030 | 53 | 300 | 4.0 | 12.0 | 0.00 | 0.00 | 0.00 | 47 | 1014.3 |
| 20260506234545 | 53 | 293 | 5.0 | 11.0 | 0.00 | 0.00 | 0.00 | 46 | 1014.1 |
| 20260506234031 | 53 | 33 | 3.0 | 10.0 | 0.00 | 0.00 | 0.00 | 46 | 1014.1 |
| 20260506233532 | 53 | 40 | 4.0 | 9.0 | 0.00 | 0.00 | 0.00 | 46 | 1014.1 |
| 20260506233041 | 54 | 265 | 2.0 | 9.0 | 0.00 | 0.00 | 0.00 | 47 | 1014.1 |
| 20260506232529 | 54 | 313 | 4.0 | 11.0 | 0.00 | 0.00 | 0.00 | 46 | 1014.0 |
| 20260506232030 | 54 | 7 | 3.0 | 11.0 | 0.00 | 0.00 | 0.00 | 46 | 1013.9 |
| 20260506231538 | 55 | 6 | 2.0 | 11.0 | 0.00 | 0.00 | 0.00 | 46 | 1014.0 |
| 20260506231031 | 54 | 26 | 3.0 | 11.0 | 0.00 | 0.00 | 0.00 | 46 | 1013.9 |
| 20260506230531 | 54 | 340 | 4.0 | 11.0 | 0.00 | 0.00 | 0.00 | 45 | 1014.1 |
| 20260506230050 | 55 | 304 | 5.0 | 12.0 | 0.00 | 0.00 | 0.00 | 44 | 1013.8 |
| 20260506225530 | 55 | 354 | 3.0 | 12.0 | 0.00 | 0.00 | 0.00 | 46 | 1013.7 |
| 20260506225030 | 54 | 321 | 3.0 | 11.0 | 0.00 | 0.00 | 0.00 | 46 | 1013.7 |
| 20260506224542 | 55 | 330 | 3.0 | 11.0 | 0.00 | 0.00 | 0.00 | 45 | 1013.6 |
| 20260506224030 | 55 | 353 | 3.0 | 12.0 | 0.00 | 0.00 | 0.00 | 44 | 1013.6 |
| 20260506223527 | 55 | 249 | 4.0 | 12.0 | 0.00 | 0.00 | 0.00 | 44 | 1013.5 |
| 20260506223041 | 55 | 77 | 3.0 | 11.0 | 0.00 | 0.00 | 0.00 | 45 | 1013.5 |
| 20260506222533 | 55 | 24 | 3.0 | 14.0 | 0.00 | 0.00 | 0.00 | 44 | 1013.7 |
| 20260506222030 | 56 | 56 | 4.0 | 14.0 | 0.00 | 0.00 | 0.00 | 43 | 1013.7 |
| 20260506221542 | 56 | 348 | 3.0 | 13.0 | 0.00 | 0.00 | 0.00 | 44 | 1013.6 |
| 20260506221031 | 56 | 28 | 4.0 | 13.0 | 0.00 | 0.00 | 0.00 | 43 | 1013.6 |
| 20260506220529 | 56 | 285 | 4.0 | 13.0 | 0.00 | 0.00 | 0.00 | 42 | 1013.4 |
| 20260506220047 | 57 | 123 | 5.0 | 12.0 | 0.00 | 0.00 | 0.00 | 42 | 1013.5 |
| 20260506215531 | 57 | 253 | 3.0 | 11.0 | 0.00 | 0.00 | 0.00 | 44 | 1013.4 |
| 20260506215030 | 58 | 286 | 4.0 | 11.0 | 0.00 | 0.00 | 0.00 | 41 | 1013.5 |
| 20260506214551 | 58 | 173 | 4.0 | 13.0 | 0.00 | 0.00 | 0.00 | 41 | 1013.4 |
| 20260506214030 | 58 | 140 | 2.0 | 13.0 | 0.00 | 0.00 | 0.00 | 43 | 1013.3 |
| 20260506213529 | 57 | 311 | 4.0 | 13.0 | 0.00 | 0.00 | 0.00 | 43 | 1013.3 |
| 20260506213042 | 57 | 345 | 4.0 | 12.0 | 0.00 | 0.00 | 0.00 | 42 | 1013.4 |
| 20260506212530 | 57 | 19 | 5.0 | 12.0 | 0.00 | 0.00 | 0.00 | 43 | 1013.4 |
| 20260506212030 | 56 | 22 | 4.0 | 11.0 | 0.00 | 0.00 | 0.00 | 44 | 1013.4 |
| 20260506211540 | 57 | 259 | 4.0 | 11.0 | 0.00 | 0.00 | 0.00 | 43 | 1013.4 |
| 20260506211030 | 57 | 301 | 4.0 | 11.0 | 0.00 | 0.00 | 0.00 | 41 | 1013.3 |
| 20260506210531 | 58 | 340 | 2.0 | 14.0 | 0.00 | 0.00 | 0.00 | 40 | 1013.3 |
| 20260506210041 | 58 | 34 | 4.0 | 14.0 | 0.00 | 0.00 | 0.00 | 42 | 1013.5 |
| 20260506205530 | 58 | 288 | 2.0 | 11.0 | 0.00 | 0.00 | 0.00 | 44 | 1013.5 |
| 20260506205033 | 58 | 189 | 4.0 | 15.0 | 0.00 | 0.00 | 0.00 | 41 | 1013.4 |
| 20260506204544 | 57 | 206 | 5.0 | 15.0 | 0.00 | 0.00 | 0.00 | 42 | 1013.6 |
| 20260506204029 | 58 | 279 | 4.0 | 15.0 | 0.00 | 0.00 | 0.00 | 41 | 1013.5 |
| 20260506203531 | 58 | 53 | 3.0 | 12.0 | 0.00 | 0.00 | 0.00 | 43 | 1013.4 |
| 20260506203035 | 58 | 325 | 3.0 | 9.0 | 0.00 | 0.00 | 0.00 | 42 | 1013.6 |
| 20260506202530 | 57 | 119 | 4.0 | 12.0 | 0.00 | 0.00 | 0.00 | 45 | 1013.5 |
| 20260506202031 | 57 | 319 | 5.0 | 12.0 | 0.00 | 0.00 | 0.00 | 41 | 1013.5 |
| 20260506201542 | 58 | 114 | 3.0 | 12.0 | 0.00 | 0.00 | 0.00 | 43 | 1013.5 |
| 20260506201029 | 58 | 321 | 3.0 | 7.0 | 0.00 | 0.00 | 0.00 | 42 | 1013.6 |
| 20260506200529 | 58 | 335 | 3.0 | 7.0 | 0.00 | 0.00 | 0.00 | 43 | 1013.5 |
| 20260506200044 | 57 | 296 | 3.0 | 7.0 | 0.00 | 0.00 | 0.00 | 42 | 1013.6 |
| 20260506195530 | 57 | 86 | 2.0 | 9.0 | 0.00 | 0.00 | 0.00 | 45 | 1013.6 |
| 20260506195030 | 57 | 255 | 3.0 | 9.0 | 0.00 | 0.00 | 0.00 | 43 | 1013.6 |
| 20260506194542 | 57 | 277 | 4.0 | 9.0 | 0.00 | 0.00 | 0.00 | 41 | 1013.7 |
| 20260506194031 | 57 | 148 | 2.0 | 8.0 | 0.00 | 0.00 | 0.00 | 45 | 1014.0 |
| 20260506193531 | 57 | 4 | 3.0 | 11.0 | 0.00 | 0.00 | 0.00 | 45 | 1013.9 |
| 20260506193040 | 57 | 125 | 4.0 | 11.0 | 0.00 | 0.00 | 0.00 | 43 | 1013.8 |
| 20260506192533 | 57 | 155 | 2.0 | 7.0 | 0.00 | 0.00 | 0.00 | 44 | 1013.9 |
| 20260506192030 | 58 | 18 | 2.0 | 12.0 | 0.00 | 0.00 | 0.00 | 42 | 1014.0 |
| 20260506191551 | 57 | 285 | 2.0 | 12.0 | 0.00 | 0.00 | 0.00 | 45 | 1013.9 |
| 20260506191031 | 57 | 239 | 3.0 | 12.0 | 0.00 | 0.00 | 0.00 | 44 | 1013.9 |
| 20260506190531 | 57 | 239 | 2.0 | 7.0 | 0.00 | 0.00 | 0.00 | 49 | 1014.0 |
| 20260506190042 | 55 | 226 | 2.0 | 9.0 | 0.00 | 0.00 | 0.00 | 48 | 1014.0 |
| 20260506185530 | 55 | 346 | 3.0 | 9.0 | 0.00 | 0.00 | 0.00 | 47 | 1014.0 |
| 20260506185030 | 55 | 281 | 3.0 | 9.0 | 0.00 | 0.00 | 0.00 | 47 | 1014.0 |
| 20260506184539 | 55 | 81 | 3.0 | 9.0 | 0.00 | 0.00 | 0.00 | 46 | 1014.0 |
| 20260506184031 | 55 | 271 | 3.0 | 8.0 | 0.00 | 0.00 | 0.00 | 46 | 1014.1 |
| 20260506183531 | 55 | 86 | 3.0 | 8.0 | 0.00 | 0.00 | 0.00 | 47 | 1014.1 |
| 20260506183048 | 55 | 286 | 3.0 | 8.0 | 0.00 | 0.00 | 0.00 | 48 | 1014.0 |
| 20260506182528 | 56 | 27 | 3.0 | 8.0 | 0.00 | 0.00 | 0.00 | 47 | 1014.0 |
| 20260506182031 | 56 | 11 | 2.0 | 8.0 | 0.00 | 0.00 | 0.00 | 46 | 1013.9 |
| 20260506181554 | 56 | 185 | 2.0 | 7.0 | 0.00 | 0.00 | 0.00 | 47 | 1013.8 |
| 20260506181029 | 56 | 338 | 1.0 | 7.0 | 0.00 | 0.00 | 0.00 | 49 | 1013.8 |
| 20260506180528 | 55 | 322 | 3.0 | 7.0 | 0.00 | 0.00 | 0.00 | 44 | 1013.9 |
| 20260506180051 | 55 | 294 | 2.0 | 10.0 | 0.00 | 0.00 | 0.00 | 45 | 1013.9 |
| 20260506175529 | 55 | 274 | 3.0 | 10.0 | 0.00 | 0.00 | 0.00 | 48 | 1014.0 |
| 20260506175034 | 55 | 317 | 2.0 | 7.0 | 0.00 | 0.00 | 0.00 | 49 | 1013.8 |
| 20260506174540 | 55 | 263 | 3.0 | 9.0 | 0.00 | 0.00 | 0.00 | 47 | 1013.9 |
| 20260506174029 | 55 | 323 | 3.0 | 9.0 | 0.00 | 0.00 | 0.00 | 48 | 1014.2 |
| 20260506173529 | 55 | 307 | 2.0 | 7.0 | 0.00 | 0.00 | 0.00 | 48 | 1014.2 |
| 20260506173101 | 56 | 285 | 1.0 | 7.0 | 0.00 | 0.00 | 0.00 | 47 | 1014.1 |
| 20260506172529 | 56 | 347 | 2.0 | 11.0 | 0.00 | 0.00 | 0.00 | 47 | 1014.3 |
| 20260506172029 | 56 | 311 | 3.0 | 11.0 | 0.00 | 0.00 | 0.00 | 47 | 1014.2 |
| 20260506171544 | 57 | 334 | 3.0 | 7.0 | 0.00 | 0.00 | 0.00 | 48 | 1014.1 |
| 20260506171028 | 57 | 216 | 4.0 | 9.0 | 0.00 | 0.00 | 0.00 | 47 | 1014.2 |
| 20260506170528 | 57 | 56 | 2.0 | 9.0 | 0.00 | 0.00 | 0.00 | 48 | 1014.2 |
| 20260506170039 | 57 | 200 | 3.0 | 7.0 | 0.00 | 0.00 | 0.00 | 46 | 1014.1 |
| 20260506165529 | 57 | 33 | 2.0 | 7.0 | 0.00 | 0.00 | 0.00 | 48 | 1014.3 |
| 20260506165029 | 58 | 277 | 2.0 | 7.0 | 0.00 | 0.00 | 0.00 | 50 | 1014.3 |
| 20260506164542 | 57 | 214 | 2.0 | 10.0 | 0.00 | 0.00 | 0.00 | 49 | 1014.1 |
| 20260506164029 | 56 | 338 | 3.0 | 10.0 | 0.00 | 0.00 | 0.00 | 47 | 1014.2 |
| 20260506163528 | 56 | 333 | 4.0 | 10.0 | 0.00 | 0.00 | 0.00 | 46 | 1014.2 |
| 20260506163044 | 56 | 353 | 2.0 | 7.0 | 0.00 | 0.00 | 0.00 | 46 | 1014.1 |
| 20260506162529 | 56 | 311 | 1.0 | 8.0 | 0.00 | 0.00 | 0.00 | 49 | 1014.1 |
| 20260506162029 | 55 | 354 | 3.0 | 8.0 | 0.00 | 0.00 | 0.00 | 45 | 1014.0 |
| 20260506161552 | 55 | 203 | 2.0 | 4.0 | 0.00 | 0.00 | 0.00 | 47 | 1014.1 |
| 20260506161031 | 54 | 202 | 1.0 | 8.0 | 0.00 | 0.00 | 0.00 | 45 | 1014.2 |
| 20260506160529 | 54 | 340 | 3.0 | 8.0 | 0.00 | 0.00 | 0.00 | 43 | 1014.2 |
| 20260506160045 | 55 | 34 | 1.0 | 6.0 | 0.00 | 0.00 | 0.00 | 48 | 1013.9 |
| 20260506155529 | 55 | 222 | 1.0 | 6.0 | 0.00 | 0.00 | 0.00 | 47 | 1014.0 |
| 20260506155028 | 55 | 168 | 2.0 | 5.0 | 0.00 | 0.00 | 0.00 | 47 | 1014.0 |
| 20260506154544 | 55 | 311 | 1.0 | 5.0 | 0.00 | 0.00 | 0.00 | 49 | 1014.0 |
| 20260506154029 | 55 | 16 | 2.0 | 4.0 | 0.00 | 0.00 | 0.00 | 49 | 1014.2 |
| 20260506153530 | 55 | 305 | 1.0 | 4.0 | 0.00 | 0.00 | 0.00 | 50 | 1014.0 |
| 20260506153043 | 54 | 292 | 0.0 | 4.0 | 0.00 | 0.00 | 0.00 | 50 | 1014.1 |
| 20260506152533 | 54 | 261 | 1.0 | 4.0 | 0.00 | 0.00 | 0.00 | 51 | 1014.0 |
| 20260506152031 | 54 | 46 | 1.0 | 6.0 | 0.00 | 0.00 | 0.00 | 49 | 1014.0 |
| 20260506151546 | 54 | 0 | 1.0 | 6.0 | 0.00 | 0.00 | 0.00 | 54 | 1014.0 |
| 20260506151028 | 54 | 283 | 2.0 | 6.0 | 0.00 | 0.00 | 0.00 | 49 | 1014.2 |
| 20260506150529 | 55 | 244 | 0.0 | 4.0 | 0.00 | 0.00 | 0.00 | 51 | 1014.2 |
| 20260506150044 | 54 | 195 | 0.0 | 4.0 | 0.00 | 0.00 | 0.00 | 53 | 1014.2 |
| 20260506145530 | 54 | 316 | 1.0 | 4.0 | 0.00 | 0.00 | 0.00 | 50 | 1014.2 |
| 20260506145028 | 54 | 220 | 0.0 | 2.0 | 0.00 | 0.00 | 0.00 | 54 | 1014.4 |
| 20260506144559 | 54 | 0 | 0.0 | 5.0 | 0.00 | 0.00 | 0.00 | 51 | 1014.1 |
| 20260506144028 | 54 | 294 | 1.0 | 5.0 | 0.00 | 0.00 | 0.00 | 54 | 1014.2 |
| 20260506143529 | 54 | 295 | 0.0 | 2.0 | 0.00 | 0.00 | 0.00 | 54 | 1014.3 |
| 20260506143041 | 53 | 0 | 1.0 | 2.0 | 0.00 | 0.00 | 0.00 | 55 | 1014.3 |
| 20260506142530 | 53 | 233 | 0.0 | 2.0 | 0.00 | 0.00 | 0.00 | 56 | 1014.2 |
| 20260506142028 | 52 | 250 | 1.0 | 3.0 | 0.00 | 0.00 | 0.00 | 60 | 1014.2 |
| 20260506141542 | 52 | 135 | 1.0 | 3.0 | 0.00 | 0.00 | 0.00 | 60 | 1014.2 |
| 20260506141028 | 51 | 0 | 1.0 | 3.0 | 0.00 | 0.00 | 0.00 | 57 | 1014.2 |
| 20260506140529 | 51 | 205 | 1.0 | 3.0 | 0.00 | 0.00 | 0.00 | 64 | 1014.4 |
| 20260506140045 | 50 | 129 | 0.0 | 3.0 | 0.00 | 0.00 | 0.00 | 62 | 1014.2 |
| 20260506135527 | 50 | 236 | 1.0 | 3.0 | 0.00 | 0.06 | 0.00 | 64 | 1014.0 |
| 20260506135029 | 50 | 230 | 0.0 | 3.0 | 0.00 | 0.06 | 0.00 | 65 | 1014.1 |
| 20260506134544 | 50 | 153 | 0.0 | 2.0 | 0.00 | 0.06 | 0.00 | 67 | 1013.8 |
| 20260506134029 | 49 | 160 | 0.0 | 2.0 | 0.00 | 0.06 | 0.00 | 69 | 1013.9 |
| 20260506133529 | 49 | 249 | 1.0 | 2.0 | 0.00 | 0.06 | 0.00 | 69 | 1013.8 |
| 20260506133043 | 49 | 207 | 0.0 | 1.0 | 0.00 | 0.06 | 0.00 | 70 | 1013.7 |
| 20260506132531 | 48 | 0 | 0.0 | 1.0 | 0.00 | 0.06 | 0.00 | 70 | 1013.6 |
| 20260506132029 | 48 | 234 | 0.0 | 1.0 | 0.00 | 0.06 | 0.00 | 73 | 1013.6 |
| 20260506131544 | 48 | 0 | 0.0 | 1.0 | 0.00 | 0.06 | 0.00 | 74 | 1013.4 |
| 20260506131029 | 47 | 0 | 0.0 | 1.0 | 0.00 | 0.06 | 0.00 | 73 | 1013.3 |
| 20260506130532 | 47 | 0 | 0.0 | 1.0 | 0.00 | 0.06 | 0.00 | 73 | 1013.3 |
| 20260506130044 | 47 | 191 | 0.0 | 1.0 | 0.00 | 0.06 | 0.00 | 75 | 1013.3 |
| 20260506125527 | 47 | 0 | 0.0 | 1.0 | 0.00 | 0.12 | 0.00 | 74 | 1013.4 |
| 20260506125029 | 46 | 0 | 0.0 | 1.0 | 0.00 | 0.12 | 0.00 | 76 | 1013.4 |
| 20260506124542 | 46 | 0 | 0.0 | 1.0 | 0.00 | 0.12 | 0.00 | 78 | 1013.3 |
| 20260506124028 | 46 | 0 | 0.0 | 1.0 | 0.00 | 0.12 | 0.00 | 78 | 1013.3 |
| 20260506123530 | 45 | 0 | 0.0 | 1.0 | 0.00 | 0.12 | 0.00 | 76 | 1013.2 |
| 20260506123051 | 44 | 0 | 0.0 | 0.0 | 0.00 | 0.12 | 0.00 | 77 | 1013.2 |
| 20260506122530 | 43 | 0 | 0.0 | 0.0 | 0.00 | 0.12 | 0.00 | 77 | 1013.0 |
| 20260506122028 | 43 | 0 | 0.0 | 0.0 | 0.00 | 0.12 | 0.00 | 80 | 1013.0 |
| 20260506121538 | 42 | 0 | 0.0 | 0.0 | 0.00 | 0.12 | 0.00 | 81 | 1013.0 |
| 20260506121028 | 41 | 0 | 0.0 | 0.0 | 0.00 | 0.12 | 0.00 | 83 | 1012.8 |
| 20260506120528 | 41 | 0 | 0.0 | 0.0 | 0.00 | 0.12 | 0.00 | 86 | 1012.8 |
| 20260506120042 | 40 | 0 | 0.0 | 1.0 | 0.00 | 0.12 | 0.00 | 86 | 1012.8 |
| 20260506115530 | 40 | 0 | 0.0 | 1.0 | 0.00 | 0.13 | 0.00 | 86 | 1012.7 |
| 20260506115028 | 39 | 0 | 0.0 | 1.0 | 0.00 | 0.13 | 0.00 | 86 | 1012.7 |
| 20260506114542 | 39 | 0 | 0.0 | 0.0 | 0.00 | 0.13 | 0.00 | 87 | 1012.7 |
| 20260506114028 | 38 | 0 | 0.0 | 0.0 | 0.00 | 0.13 | 0.00 | 87 | 1012.5 |
| 20260506113530 | 38 | 0 | 0.0 | 0.0 | 0.00 | 0.13 | 0.00 | 86 | 1012.6 |
| 20260506113041 | 38 | 0 | 0.0 | 0.0 | 0.00 | 0.13 | 0.00 | 86 | 1012.4 |
| 20260506112528 | 38 | 0 | 0.0 | 0.0 | 0.00 | 0.13 | 0.00 | 87 | 1012.5 |
| 20260506112028 | 38 | 0 | 0.0 | 0.0 | 0.00 | 0.13 | 0.00 | 86 | 1012.4 |
| 20260506111538 | 38 | 0 | 0.0 | 0.0 | 0.00 | 0.13 | 0.00 | 87 | 1012.2 |
| 20260506111028 | 37 | 0 | 0.0 | 0.0 | 0.00 | 0.13 | 0.00 | 87 | 1012.1 |
| 20260506110529 | 37 | 0 | 0.0 | 0.0 | 0.00 | 0.13 | 0.00 | 87 | 1012.1 |
| 20260506110042 | 37 | 0 | 0.0 | 0.0 | 0.00 | 0.13 | 0.00 | 86 | 1012.2 |
| 20260506105528 | 37 | 0 | 0.0 | 0.0 | 0.00 | 0.13 | 0.00 | 85 | 1012.1 |
| 20260506105028 | 37 | 0 | 0.0 | 0.0 | 0.00 | 0.13 | 0.00 | 85 | 1012.1 |
| 20260506104548 | 37 | 0 | 0.0 | 0.0 | 0.00 | 0.13 | 0.00 | 84 | 1012.1 |
| 20260506104029 | 37 | 0 | 0.0 | 0.0 | 0.00 | 0.13 | 0.00 | 84 | 1012.1 |
| 20260506103528 | 37 | 0 | 0.0 | 0.0 | 0.00 | 0.13 | 0.00 | 83 | 1011.9 |
| 20260506103042 | 37 | 0 | 0.0 | 0.0 | 0.00 | 0.13 | 0.00 | 83 | 1011.8 |
| 20260506102529 | 37 | 0 | 0.0 | 0.0 | 0.00 | 0.13 | 0.00 | 83 | 1011.8 |
| 20260506102030 | 38 | 0 | 0.0 | 0.0 | 0.00 | 0.13 | 0.00 | 81 | 1011.6 |
| 20260506101542 | 38 | 0 | 0.0 | 0.0 | 0.00 | 0.13 | 0.00 | 81 | 1011.5 |
| 20260506101028 | 38 | 0 | 0.0 | 0.0 | 0.00 | 0.13 | 0.00 | 80 | 1011.4 |
| 20260506100531 | 38 | 0 | 0.0 | 0.0 | 0.00 | 0.13 | 0.00 | 79 | 1011.4 |
| 20260506100044 | 39 | 0 | 0.0 | 0.0 | 0.00 | 0.13 | 0.00 | 78 | 1011.4 |
| 20260506095528 | 39 | 0 | 0.0 | 0.0 | 0.00 | 0.13 | 0.00 | 77 | 1011.3 |
| 20260506095027 | 40 | 0 | 0.0 | 0.0 | 0.00 | 0.13 | 0.00 | 76 | 1011.4 |
| 20260506094535 | 40 | 0 | 0.0 | 0.0 | 0.00 | 0.13 | 0.00 | 74 | 1011.4 |
| 20260506094027 | 41 | 0 | 0.0 | 0.0 | 0.00 | 0.13 | 0.00 | 73 | 1011.4 |
| 20260506093529 | 41 | 0 | 0.0 | 0.0 | 0.00 | 0.13 | 0.00 | 72 | 1011.6 |
| 20260506093040 | 42 | 0 | 0.0 | 0.0 | 0.00 | 0.13 | 0.00 | 71 | 1011.5 |
| 20260506092528 | 42 | 0 | 0.0 | 1.0 | 0.00 | 0.13 | 0.00 | 71 | 1011.6 |
| 20260506092029 | 43 | 0 | 0.0 | 1.0 | 0.00 | 0.13 | 0.00 | 70 | 1011.6 |
| 20260506091545 | 43 | 0 | 0.0 | 1.0 | 0.00 | 0.13 | 0.00 | 69 | 1011.6 |
| 20260506091029 | 43 | 0 | 0.0 | 1.0 | 0.00 | 0.13 | 0.00 | 69 | 1011.4 |
| 20260506090525 | 43 | 0 | 0.0 | 1.0 | 0.00 | 0.13 | 0.00 | 70 | 1011.3 |
| 20260506090044 | 42 | 0 | 0.0 | 1.0 | 0.00 | 0.13 | 0.00 | 70 | 1011.4 |
| 20260506085528 | 42 | 0 | 0.0 | 1.0 | 0.00 | 0.13 | 0.00 | 71 | 1011.4 |
| 20260506085025 | 42 | 342 | 0.0 | 1.0 | 0.00 | 0.13 | 0.00 | 72 | 1011.4 |
| 20260506084539 | 42 | 345 | 0.0 | 1.0 | 0.00 | 0.13 | 0.00 | 70 | 1011.3 |
| 20260506084029 | 41 | 0 | 0.0 | 0.0 | 0.00 | 0.13 | 0.00 | 71 | 1011.3 |
| 20260506083528 | 41 | 0 | 0.0 | 0.0 | 0.00 | 0.13 | 0.00 | 71 | 1011.1 |
| 20260506083042 | 42 | 0 | 0.0 | 0.0 | 0.00 | 0.13 | 0.00 | 70 | 1011.1 |
| 20260506082530 | 42 | 0 | 0.0 | 1.0 | 0.00 | 0.13 | 0.00 | 69 | 1011.1 |
| 20260506082030 | 42 | 0 | 0.0 | 1.0 | 0.00 | 0.13 | 0.00 | 69 | 1011.2 |
| 20260506081544 | 42 | 344 | 0.0 | 0.0 | 0.00 | 0.13 | 0.00 | 68 | 1011.0 |
| 20260506081031 | 42 | 0 | 0.0 | 0.0 | 0.00 | 0.13 | 0.00 | 68 | 1011.1 |
| 20260506080532 | 43 | 0 | 0.0 | 1.0 | 0.00 | 0.13 | 0.00 | 67 | 1011.2 |
| 20260506073044 | 45 | 349 | 0.0 | 3.0 | 0.00 | 0.13 | 0.00 | 63 | 1011.0 |
| 20260506072530 | 46 | 0 | 0.0 | 3.0 | 0.00 | 0.13 | 0.00 | 62 | 1010.9 |
| 20260506072035 | 46 | 11 | 0.0 | 3.0 | 0.00 | 0.13 | 0.00 | 62 | 1010.9 |
| 20260506071545 | 46 | 356 | 1.0 | 3.0 | 0.00 | 0.13 | 0.00 | 61 | 1010.7 |
| 20260506071031 | 46 | 360 | 1.0 | 3.0 | 0.00 | 0.13 | 0.00 | 61 | 1010.7 |
| 20260506070531 | 46 | 311 | 0.0 | 3.0 | 0.00 | 0.13 | 0.00 | 62 | 1010.5 |
| 20260506062030 | 46 | 0 | 0.0 | 1.0 | 0.00 | 0.13 | 0.00 | 65 | 1010.4 |
| 20260506061539 | 45 | 0 | 0.0 | 1.0 | 0.00 | 0.13 | 0.00 | 65 | 1010.3 |
| 20260506061031 | 45 | 0 | 0.0 | 1.0 | 0.00 | 0.13 | 0.00 | 65 | 1010.3 |
| 20260506060530 | 46 | 0 | 0.0 | 1.0 | 0.00 | 0.13 | 0.00 | 65 | 1010.4 |
| 20260506051028 | 49 | 283 | 0.0 | 1.0 | 0.00 | 0.13 | 0.00 | 59 | 1010.2 |
| 20260506050529 | 49 | 0 | 0.0 | 3.0 | 0.00 | 0.13 | 0.00 | 60 | 1010.2 |
| 20260506045028 | 50 | 307 | 0.0 | 2.0 | 0.00 | 0.13 | 0.13 | 64 | 1010.1 |
| 20260506044548 | 49 | 302 | 0.0 | 2.0 | 0.00 | 0.13 | 0.13 | 66 | 1010.0 |
| 20260506044028 | 49 | 338 | 0.0 | 1.0 | 0.00 | 0.13 | 0.13 | 68 | 1010.1 |
| 20260506043530 | 49 | 0 | 0.0 | 1.0 | 0.00 | 0.13 | 0.13 | 68 | 1010.1 |
| 20260506043036 | 49 | 0 | 0.0 | 0.0 | 0.00 | 0.13 | 0.13 | 69 | 1010.2 |
| 20260506042529 | 49 | 0 | 0.0 | 0.0 | 0.00 | 0.13 | 0.13 | 69 | 1010.2 |
| 20260506042029 | 49 | 0 | 0.0 | 0.0 | 0.00 | 0.13 | 0.13 | 69 | 1010.2 |
| 20260506041552 | 49 | 0 | 0.0 | 0.0 | 0.00 | 0.13 | 0.13 | 69 | 1010.2 |
| 20260506041030 | 49 | 0 | 0.0 | 0.0 | 0.00 | 0.13 | 0.13 | 68 | 1010.0 |
| 20260506040528 | 49 | 0 | 0.0 | 0.0 | 0.00 | 0.13 | 0.13 | 68 | 1010.1 |
| 20260506040044 | 49 | 0 | 0.0 | 0.0 | 0.00 | 0.13 | 0.13 | 69 | 1010.2 |
| 20260506035528 | 49 | 0 | 0.0 | 0.0 | 0.00 | 0.13 | 0.13 | 70 | 1010.4 |
| 20260506035028 | 49 | 0 | 0.0 | 0.0 | 0.00 | 0.13 | 0.13 | 72 | 1010.4 |
| 20260506034544 | 49 | 0 | 0.0 | 0.0 | 0.00 | 0.13 | 0.13 | 70 | 1010.7 |